TimeMDT,TemperatureF,Dew PointF,Humidity,Sea Level PressureIn,VisibilityMPH,Wind Direction,Wind SpeedMPH,Gust SpeedMPH,PrecipitationIn,Events,Conditions,WindDirDegrees,DateUTC
12:00 AM,24.8,-9999,N/A,30.23,10.0,Calm,Calm,-,N/A,,Clear,0,2012-10-05 06:00:00
12:20 AM,24.8,-9999,N/A,30.23,10.0,Calm,Calm,-,N/A,,Clear,0,2012-10-05 06:20:00
12:40 AM,23.0,-9999,N/A,30.23,10.0,NNE,3.5,-,N/A,,Clear,30,2012-10-05 06:40:00
1:00 AM,23.0,-9999,N/A,30.23,10.0,NE,8.1,-,N/A,,Clear,50,2012-10-05 07:00:00
1:20 AM,24.8,-9999,N/A,30.23,10.0,NE,8.1,-,N/A,,Clear,40,2012-10-05 07:20:00
1:40 AM,24.8,-9999,N/A,30.23,10.0,NNE,8.1,-,N/A,,Clear,20,2012-10-05 07:40:00
2:00 AM,24.8,-9999,N/A,30.23,10.0,NNE,4.6,-,N/A,,Clear,30,2012-10-05 08:00:00
2:20 AM,23.0,-9999,N/A,30.23,10.0,NNE,4.6,-,N/A,,Clear,30,2012-10-05 08:20:00
2:40 AM,23.0,-9999,N/A,30.23,10.0,NNE,3.5,-,N/A,,Clear,20,2012-10-05 08:40:00
3:00 AM,21.2,-9999,N/A,30.23,10.0,NE,4.6,-,N/A,,Clear,40,2012-10-05 09:00:00
3:20 AM,21.2,-9999,N/A,30.23,10.0,ENE,5.8,-,N/A,,Clear,60,2012-10-05 09:20:00
3:40 AM,21.2,-9999,N/A,30.23,10.0,ENE,5.8,-,N/A,,Clear,60,2012-10-05 09:40:00
4:00 AM,19.4,-9999,N/A,30.23,10.0,NE,3.5,-,N/A,,Clear,50,2012-10-05 10:00:00
4:20 AM,19.4,-9999,N/A,30.23,10.0,ENE,4.6,-,N/A,,Clear,60,2012-10-05 10:20:00
4:40 AM,17.6,-9999,N/A,30.23,10.0,ENE,5.8,-,N/A,,Clear,70,2012-10-05 10:40:00
5:00 AM,17.6,-9999,N/A,30.23,10.0,NE,8.1,-,N/A,,Clear,50,2012-10-05 11:00:00
5:20 AM,17.6,-9999,N/A,30.23,10.0,NNE,8.1,-,N/A,,Clear,30,2012-10-05 11:20:00
5:40 AM,17.6,-9999,N/A,30.23,10.0,NNE,5.8,-,N/A,,Clear,30,2012-10-05 11:40:00
6:00 AM,17.6,-9999,N/A,30.24,10.0,ENE,6.9,-,N/A,,Clear,60,2012-10-05 12:00:00
6:20 AM,15.8,-9999,N/A,30.25,10.0,East,3.5,-,N/A,,Clear,100,2012-10-05 12:20:00
6:40 AM,14.0,-9999,N/A,30.25,10.0,Calm,Calm,-,N/A,,Clear,0,2012-10-05 12:40:00
7:00 AM,14.0,-9999,N/A,30.25,10.0,Calm,Calm,-,N/A,,Clear,0,2012-10-05 13:00:00
7:20 AM,14.0,-9999,N/A,30.25,10.0,SSW,4.6,-,N/A,,Clear,200,2012-10-05 13:20:00
7:40 AM,12.2,-9999,N/A,30.26,10.0,SSW,3.5,-,N/A,,Clear,200,2012-10-05 13:40:00
8:00 AM,12.2,-9999,N/A,30.26,10.0,Calm,Calm,-,N/A,,Clear,0,2012-10-05 14:00:00
8:20 AM,15.8,-9999,N/A,30.26,10.0,Calm,Calm,-,N/A,,Clear,0,2012-10-05 14:20:00
8:40 AM,17.6,-9999,N/A,30.26,10.0,Calm,Calm,-,N/A,,Clear,0,2012-10-05 14:40:00
9:00 AM,19.4,-9999,N/A,30.26,10.0,Calm,Calm,-,N/A,,Clear,0,2012-10-05 15:00:00
9:20 AM,23.0,-9999,N/A,30.27,10.0,Calm,Calm,-,N/A,,Clear,0,2012-10-05 15:20:00
9:40 AM,26.6,-9999,N/A,30.27,10.0,Calm,Calm,-,N/A,,Clear,0,2012-10-05 15:40:00
10:00 AM,28.4,-9999,N/A,30.27,10.0,NE,4.6,-,N/A,,Clear,50,2012-10-05 16:00:00
10:20 AM,28.4,-9999,N/A,30.27,10.0,East,4.6,-,N/A,,Clear,80,2012-10-05 16:20:00
10:40 AM,32.0,-9999,N/A,30.27,10.0,NE,3.5,-,N/A,,Clear,50,2012-10-05 16:40:00
11:00 AM,32.0,-9999,N/A,30.26,10.0,Calm,Calm,-,N/A,,Clear,0,2012-10-05 17:00:00
11:20 AM,32.0,-9999,N/A,30.26,10.0,SE,3.5,-,N/A,,Clear,130,2012-10-05 17:20:00
11:40 AM,32.0,-9999,N/A,30.26,10.0,Calm,Calm,-,N/A,,Clear,0,2012-10-05 17:40:00
12:20 PM,35.6,-9999,N/A,30.25,10.0,ENE,4.6,-,N/A,,Partly Cloudy,70,2012-10-05 18:20:00
12:40 PM,35.6,-9999,N/A,30.25,10.0,Calm,Calm,-,N/A,,Clear,0,2012-10-05 18:40:00
1:00 PM,37.4,-9999,N/A,30.24,10.0,NE,4.6,-,N/A,,Clear,40,2012-10-05 19:00:00
1:20 PM,37.4,-9999,N/A,30.23,10.0,West,9.2,-,N/A,,Clear,260,2012-10-05 19:20:00
1:40 PM,39.2,-9999,N/A,30.22,10.0,WNW,4.6,-,N/A,,Clear,300,2012-10-05 19:40:00
2:00 PM,39.2,-9999,N/A,30.21,10.0,Calm,Calm,-,N/A,,Clear,0,2012-10-05 20:00:00
2:20 PM,39.2,-9999,N/A,30.21,10.0,NW,8.1,-,N/A,,Clear,320,2012-10-05 20:20:00
2:40 PM,39.2,-9999,N/A,30.20,10.0,Calm,Calm,-,N/A,,Clear,0,2012-10-05 20:40:00
3:00 PM,41.0,-9999,N/A,30.20,10.0,North,6.9,-,N/A,,Clear,350,2012-10-05 21:00:00
3:20 PM,41.0,-9999,N/A,30.19,10.0,NNE,6.9,-,N/A,,Partly Cloudy,20,2012-10-05 21:20:00
3:40 PM,41.0,-9999,N/A,30.19,10.0,NNE,9.2,-,N/A,,Partly Cloudy,30,2012-10-05 21:40:00
4:00 PM,41.0,-9999,N/A,30.19,10.0,NNW,5.8,19.6,N/A,,Mostly Cloudy,340,2012-10-05 22:00:00
4:20 PM,42.8,-9999,N/A,30.19,10.0,NE,9.2,-,N/A,,Overcast,50,2012-10-05 22:20:00
4:40 PM,41.0,-9999,N/A,30.19,10.0,Calm,Calm,-,N/A,,Mostly Cloudy,0,2012-10-05 22:40:00
5:00 PM,42.8,-9999,N/A,30.20,10.0,NNE,10.4,19.6,N/A,,Mostly Cloudy,20,2012-10-05 23:00:00
5:20 PM,41.0,-9999,N/A,30.20,10.0,NNE,15.0,20.7,N/A,,Scattered Clouds,30,2012-10-05 23:20:00
5:40 PM,39.2,-9999,N/A,30.21,10.0,NE,20.7,27.6,N/A,,Partly Cloudy,40,2012-10-05 23:40:00
6:00 PM,37.4,-9999,N/A,30.22,10.0,NNE,15.0,25.3,N/A,,Scattered Clouds,30,2012-10-06 00:00:00
6:20 PM,35.6,-9999,N/A,30.23,10.0,NNE,17.3,25.3,N/A,,Mostly Cloudy,30,2012-10-06 00:20:00
6:40 PM,32.0,-9999,N/A,30.25,10.0,NNE,10.4,17.3,N/A,,Mostly Cloudy,30,2012-10-06 00:40:00
7:00 PM,32.0,-9999,N/A,30.25,10.0,NNE,11.5,16.1,N/A,,Scattered Clouds,30,2012-10-06 01:00:00
7:20 PM,32.0,-9999,N/A,30.25,10.0,NNE,9.2,17.3,N/A,,Clear,30,2012-10-06 01:20:00
7:40 PM,30.2,-9999,N/A,30.26,10.0,NE,8.1,-,N/A,,Clear,40,2012-10-06 01:40:00
8:00 PM,30.2,-9999,N/A,30.27,10.0,NNE,8.1,-,N/A,,Clear,20,2012-10-06 02:00:00
8:20 PM,28.4,-9999,N/A,30.28,10.0,NNE,5.8,-,N/A,,Clear,20,2012-10-06 02:20:00
8:40 PM,28.4,-9999,N/A,30.28,10.0,NNE,10.4,-,N/A,,Partly Cloudy,20,2012-10-06 02:40:00
9:20 PM,28.4,-9999,N/A,30.29,10.0,NE,6.9,-,N/A,,Clear,50,2012-10-06 03:20:00
9:40 PM,26.6,-9999,N/A,30.29,10.0,NE,5.8,-,N/A,,Clear,50,2012-10-06 03:40:00
10:00 PM,26.6,-9999,N/A,30.30,10.0,ENE,4.6,-,N/A,,Mostly Cloudy,60,2012-10-06 04:00:00
10:20 PM,28.4,-9999,N/A,30.30,10.0,NE,3.5,-,N/A,,Overcast,40,2012-10-06 04:20:00
10:40 PM,26.6,-9999,N/A,30.29,10.0,NE,3.5,-,N/A,,Overcast,50,2012-10-06 04:40:00
11:00 PM,26.6,-9999,N/A,30.30,10.0,NE,8.1,-,N/A,,Scattered Clouds,50,2012-10-06 05:00:00
11:20 PM,26.6,-9999,N/A,30.29,10.0,NNE,10.4,-,N/A,,Scattered Clouds,20,2012-10-06 05:20:00
11:40 PM,26.6,-9999,N/A,30.29,10.0,NNE,9.2,-,N/A,,Partly Cloudy,20,2012-10-06 05:40:00